Weather in Fashchivka

Ukraine / Luhansk Region     48°16′19″N   38°36′51″E
temp.,
°C
wind,
m/s
gust,
m/s
humid.,
%
clouds,
%
prec.,
mm/h
press.,
hPa
HPBL,
m
17 september, fri
fri1700:00+12ne33490 0.0 101830
03:00+10ene22534 0.0 101810
06:00+10se11555 0.0 101810
09:00+16sse22389 0.0 1018375
12:00+20ssw22285 0.0 10171800
15:00+22sw33245 0.0 10152037
18:00+19ssw223027 0.0 101513
21:00+15s333596 0.0 101526
18 september, sat
sat1800:00+14ssw1239100 0.0 101512
03:00+13sse223996 0.0 101527
06:00+12sse346059 0.0 101563
09:00+17s46565 0.0 1015431
12:00+22sse6638100 0.0 10141626
15:00+23s562898 0.0 10132200
18:00+20ssw473488 0.0 1013303
21:00+18se363759 0.0 1013141
19 september, sun
sun1900:00+17se5105099 0.0 1012304
03:00+17se4958100 0.0 1011310
06:00+14s2577100 1.3 1011236
09:00+15sse4990100 4.0 1011366
12:00+16ssw5109091 0.9 1011674
15:00+19ssw677699 1.8 1010795
18:00+16s5887100 0.5 1010358
21:00+15sse498749 1.6 1010264
20 september, mon
mon2000:00+14sse3696100 0.9 1009119
03:00+14s359676 0.9 1009109
06:00+15w269153 0.4 1009208
09:00+16wnw57705 0.4 1010493
12:00+19w4646100 0.0 10101063
15:00+19sw4646100 0.0 10101267
18:00+13w4686100 2.9 1011361
21:00+13w4790100 5.8 1011558
21 september, tue
tue2100:00+12w37759 0.3 1013546
03:00+9wnw48815 0.3 1014319
06:00+8w37885 0.0 1015259
09:00+11wsw68703 0.0 1016823
12:00+13wsw8105797 0.0 10161440
15:00+12w7952100 0.0 10161487
18:00+12wnw475072 0.0 1016879
21:00+10wnw12595 0.0 101635